K4AXV-13 Weather Reports


time (UTC)temp
C
wind
direction
speed
KPH
gust
KPH
rain 1hr
cm
rain 24hr
cm
rain mn
cm
humidity
%
barometer
mb
20260831232250 28 117 1.6 1.6 0.00 0.03 0.00
20260831231746 28 114 1.6 1.6 0.00 0.03 0.00
20260831231247 28 128 4.8 3.2 0.00 0.03 0.00
20260831230246 28 172 3.2 4.8 0.00 0.03 0.00
20260831225744 28 128 6.4 4.8 0.00 0.03 0.00
20260831225245 28 105 4.8 6.4 0.00 0.03 0.00
20260831224244 28 104 3.2 3.2 0.00 0.03 0.00
20260831223742 28 145 6.4 6.4 0.00 0.03 0.00
20260831223243 28 136 6.4 8.0 0.00 0.03 0.00
20260831222740 29 136 8.0 8.0 0.00 0.03 0.00
20260831222241 29 149 6.4 9.7 0.00 0.03 0.00
20260831221738 28 135 8.0 6.4 0.00 0.03 0.00
20260831221237 29 118 6.4 6.4 0.00 0.03 0.00
20260831220734 29 142 8.0 8.0 0.00 0.03 0.00
20260831220235 29 139 8.0 6.4 0.00 0.03 0.00
20260831215732 29 145 6.4 6.4 0.00 0.03 0.00
20260831215233 29 138 6.4 8.0 0.00 0.03 0.00
20260831214729 29 138 8.0 4.8 0.00 0.03 0.00
20260831214229 29 142 6.4 8.0 0.00 0.03 0.00
20260831213728 29 166 8.0 8.0 0.00 0.03 0.00
20260831213229 30 141 6.4 8.0 0.00 0.03 0.00
20260831212724 30 136 4.8 3.2 0.00 0.03 0.00
20260831212225 30 136 1.6 3.2 0.00 0.03 0.00
20260831211722 30 90 3.2 1.6 0.00 0.03 0.00
20260831211223 30 127 1.6 0.0 0.00 0.03 0.00
20260831210719 30 68 0.0 0.0 0.00 0.03 0.00
20260831210220 30 89 0.0 0.0 0.00 0.03 0.00
20260831205716 30 24 0.0 0.0 0.00 0.03 0.00
20260831205217 30 105 0.0 0.0 0.00 0.03 0.00
20260831204714 30 145 6.4 4.8 0.00 0.03 0.00
20260831204216 30 125 8.0 6.4 0.00 0.03 0.00
20260831203712 30 155 3.2 6.4 0.00 0.03 0.00
20260831203304 30 136 1.6 4.8 0.00 0.03 0.00
20260831203213 30 136 1.6 4.8 0.00 0.03 0.00
20260831202711 30 153 6.4 4.8 0.00 0.03 0.00
20260831202212 30 105 0.0 0.0 0.00 0.03 0.00
20260831201710 30 105 0.0 0.0 0.00 0.03 0.00
20260831201211 30 105 0.0 0.0 0.00 0.03 0.00
20260831200709 30 105 0.0 0.0 0.00 0.03 0.00
20260831200210 30 105 0.0 0.0 0.00 0.03 0.00
20260831195708 30 124 1.6 3.2 0.00 0.03 0.00
20260831195209 30 150 3.2 6.4 0.00 0.03 0.00
20260831194707 30 139 8.0 4.8 0.00 0.03 0.00
20260831194208 30 153 6.4 8.0 0.00 0.03 0.00
20260831193706 30 124 8.0 9.7 0.00 0.03 0.00
20260831193207 30 145 1.6 6.4 0.00 0.03 0.00
20260831192706 30 163 4.8 3.2 0.00 0.03 0.00
20260831192206 30 134 3.2 3.2 0.00 0.03 0.00
20260831191705 30 135 9.7 12.9 0.00 0.03 0.00
20260831190703 29 149 9.7 9.7 0.00 0.03 0.00
20260831190204 30 111 9.7 6.4 0.00 0.03 0.00
20260831185702 30 82 6.4 8.0 0.00 0.03 0.00
20260831185203 30 131 9.7 11.3 0.00 0.03 0.00
20260831184701 30 124 8.0 11.3 0.00 0.03 0.00
20260831184202 30 128 11.3 12.9 0.00 0.03 0.00
20260831183658 30 97 8.0 8.0 0.00 0.03 0.00
20260831183159 30 132 9.7 8.0 0.00 0.03 0.00
20260831182656 30 111 4.8 6.4 0.00 0.03 0.00
20260831182157 30 111 4.8 3.2 0.00 0.03 0.00
20260831181655 30 143 4.8 8.0 0.00 0.03 0.00
20260831181156 30 134 11.3 11.3 0.00 0.03 0.00
20260831180654 30 111 9.7 4.8 0.00 0.03 0.00
20260831180155 30 113 8.0 8.0 0.00 0.03 0.00
20260831175653 30 131 1.6 3.2 0.00 0.03 0.00
20260831175154 30 129 6.4 4.8 0.00 0.03 0.00
20260831174653 30 125 9.7 8.0 0.00 0.03 0.00
20260831174154 31 125 3.2 3.2 0.00 0.03 0.00
20260831173652 30 302 4.8 3.2 0.00 0.03 0.00
20260831172651 30 124 9.7 9.7 0.00 0.03 0.00
20260831172152 30 321 1.6 1.6 0.00 0.03 0.00
20260831171650 30 172 3.2 4.8 0.00 0.03 0.00
20260831171151 30 142 8.0 9.7 0.00 0.03 0.00
20260831170648 29 150 6.4 9.7 0.00 0.03 0.00
20260831170147 29 155 8.0 8.0 0.00 0.03 0.00
20260831165645 29 128 11.3 12.9 0.00 0.03 0.00
20260831165146 29 153 9.7 9.7 0.00 0.03 0.00
20260831164145 29 167 0.0 3.2 0.00 0.03 0.00
20260831163144 29 108 0.0 0.0 0.00 0.03 0.00
20260831162144 29 105 3.2 1.6 0.00 0.03 0.00
20260831161642 29 75 0.0 0.0 0.00 0.03 0.00
20260831161143 29 75 0.0 0.0 0.00 0.03 0.00
20260831160641 29 84 4.8 4.8 0.00 0.03 0.00
20260831160142 30 101 3.2 3.2 0.00 0.03 0.00
20260831155640 29 121 3.2 3.2 0.00 0.03 0.00
20260831155141 29 115 3.2 3.2 0.00 0.03 0.00
20260831154639 29 77 3.2 3.2 0.00 0.03 0.00
20260831154140 29 105 6.4 1.6 0.00 0.03 0.00
20260831145634 28 86 3.2 4.8 0.00 0.03 0.00
20260831144135 27 152 3.2 6.4 0.00 0.03 0.00
20260831142632 27 82 4.8 3.2 0.00 0.03 0.00
20260831142133 26 80 1.6 3.2 0.00 0.03 0.00
20260831141132 27 146 4.8 6.4 0.00 0.03 0.00
20260831140629 26 139 3.2 3.2 0.00 0.03 0.00
20260831134127 26 153 3.2 6.4 0.00 0.03 0.00
20260831133126 25 91 6.4 3.2 0.00 0.03 0.00
20260831130124 25 59 0.0 0.0 0.00 0.03 0.00
20260831125621 25 59 0.0 0.0 0.00 0.03 0.00
20260831122616 24 59 0.0 0.0 0.00 0.03 0.00
20260831122117 24 59 0.0 0.0 0.00 0.03 0.00
20260831121615 23 59 0.0 0.0 0.00 0.03 0.00
20260831121116 23 59 0.0 0.0 0.00 0.03 0.00
20260831120615 23 59 0.0 0.0 0.00 0.03 0.00
20260831120115 23 59 0.0 0.0 0.00 0.03 0.00
20260831115612 23 59 0.0 0.0 0.00 0.03 0.00
20260831114112 23 59 0.0 0.0 0.00 0.03 0.00
20260831113610 23 59 0.0 0.0 0.00 0.03 0.00
20260831113111 23 80 0.0 0.0 0.00 0.03 0.00
20260831112607 23 80 0.0 0.0 0.00 0.03 0.00
20260831111606 24 93 0.0 0.0 0.00 0.03 0.00
20260831111107 23 174 0.0 3.2 0.00 0.03 0.00
20260831110605 23 79 0.0 0.0 0.00 0.03 0.00
20260831110107 23 79 0.0 0.0 0.00 0.03 0.00
20260831105603 23 79 0.0 0.0 0.00 0.03 0.00
20260831105103 23 39 0.0 0.0 0.00 0.03 0.00
20260831104602 24 39 0.0 0.0 0.00 0.03 0.00
20260831104103 24 39 0.0 0.0 0.00 0.03 0.00
20260831103601 23 39 0.0 0.0 0.00 0.03 0.00
20260831103102 23 39 0.0 0.0 0.00 0.03 0.00
20260831102101 24 39 0.0 0.0 0.00 0.03 0.00
20260831100558 23 39 0.0 0.0 0.00 0.03 0.00
20260831100059 23 39 0.0 0.0 0.00 0.03 0.00
20260831095059 23 39 0.0 0.0 0.00 0.03 0.00
20260831093057 24 39 0.0 0.0 0.00 0.03 0.00
20260831092554 24 39 0.0 0.0 0.00 0.03 0.00
20260831092056 23 39 0.0 0.0 0.00 0.03 0.00
20260831091553 24 39 0.0 0.0 0.00 0.03 0.00
20260831091052 24 39 0.0 0.0 0.00 0.03 0.00
20260831090549 24 39 0.0 0.0 0.00 0.03 0.00
20260831090050 24 39 0.0 0.0 0.00 0.03 0.00
20260831085545 23 39 0.0 0.0 0.00 0.03 0.00
20260831085046 24 39 0.0 0.0 0.00 0.03 0.00
20260831084543 24 39 0.0 0.0 0.00 0.03 0.00
20260831084043 24 39 0.0 0.0 0.00 0.03 0.00
20260831083542 23 39 0.0 0.0 0.00 0.03 0.00
20260831083043 24 39 0.0 0.0 0.00 0.03 0.00
20260831081536 23 39 0.0 0.0 0.00 0.03 0.00
20260831081037 23 39 0.0 0.0 0.00 0.03 0.00
20260831080035 24 39 0.0 0.0 0.00 0.03 0.00
20260831075533 24 39 0.0 0.0 0.00 0.03 0.00
20260831075035 24 39 0.0 0.0 0.00 0.03 0.00
20260831074532 23 39 0.0 0.0 0.00 0.03 0.00
20260831074033 24 39 0.0 0.0 0.00 0.03 0.00
20260831073530 24 39 0.0 0.0 0.00 0.03 0.00
20260831073031 24 39 0.0 0.0 0.00 0.03 0.00
20260831072529 24 39 0.0 0.0 0.00 0.03 0.00
20260831072030 24 39 0.0 0.0 0.00 0.03 0.00
20260831071527 24 39 0.0 0.0 0.00 0.03 0.00
20260831070525 24 39 0.0 0.0 0.00 0.03 0.00
20260831065522 24 39 0.0 0.0 0.00 0.03 0.00
20260831065021 24 39 0.0 0.0 0.00 0.03 0.00
20260831064519 24 39 0.0 0.0 0.00 0.03 0.00
20260831064019 24 39 0.0 0.0 0.00 0.03 0.00
20260831063018 24 39 0.0 0.0 0.00 0.41 0.03
20260831062514 25 39 0.0 0.0 0.00 0.41 0.03
20260831061513 25 39 0.0 0.0 0.00 0.41 0.03
20260831060514 24 39 0.0 0.0 0.00 0.41 0.03
20260831060013 24 39 0.0 0.0 0.00 0.41 0.03
20260831055511 24 39 0.0 0.0 0.00 0.41 0.03
20260831055014 25 39 0.0 0.0 0.00 0.41 0.03
20260831054510 25 39 0.0 0.0 0.00 0.41 0.03
20260831053506 25 39 0.0 0.0 0.00 0.41 0.03
20260831053007 25 39 0.0 0.0 0.00 0.41 0.03
20260831052505 25 39 0.0 0.0 0.00 0.41 0.03
20260831052006 25 39 0.0 0.0 0.00 0.41 0.03
20260831051502 24 39 0.0 0.0 0.00 0.41 0.03
20260831051003 25 39 0.0 0.0 0.00 0.41 0.03
20260831050501 25 39 0.0 0.0 0.00 0.41 0.03
20260831050002 25 39 0.0 0.0 0.00 0.41 0.03
20260831045001 25 39 0.0 0.0 0.00 0.41 0.03
20260831044459 25 39 0.0 0.0 0.00 0.41 0.03
20260831044000 25 39 0.0 0.0 0.00 0.41 0.03
20260831043459 25 39 0.0 0.0 0.00 0.41 0.03
20260831043000 25 39 0.0 0.0 0.00 0.41 0.03
20260831042458 25 39 0.0 0.0 0.00 0.41 0.03
20260831041959 25 39 0.0 0.0 0.00 0.41 0.03
20260831041457 25 39 0.0 0.0 0.00 0.41 0.03
20260831040958 25 39 0.0 0.0 0.00 0.41 0.03
20260831040456 25 39 0.0 0.0 0.00 0.41 0.03
20260831035957 24 39 0.0 0.0 0.00 0.41 0.03
20260831035456 25 39 0.0 0.0 0.00 0.41 0.03
20260831034957 25 39 0.0 0.0 0.00 0.41 0.03
20260831034455 25 39 0.0 0.0 0.00 0.41 0.03
20260831033956 25 39 0.0 0.0 0.00 0.41 0.03
20260831033454 25 53 1.6 1.6 0.00 0.41 0.03
20260831032956 25 34 0.0 0.0 0.00 0.41 0.03
20260831032452 25 34 0.0 0.0 0.00 0.41 0.03
20260831031953 25 34 0.0 0.0 0.00 0.41 0.03
20260831031451 25 34 0.0 0.0 0.00 0.41 0.03
20260831030952 25 34 0.0 0.0 0.00 0.41 0.03
20260831030450 25 34 0.0 0.0 0.00 0.41 0.03
20260831025951 25 34 0.0 0.0 0.00 0.41 0.03
20260831025449 25 34 0.0 0.0 0.00 0.41 0.03
20260831024950 26 34 0.0 0.0 0.00 0.41 0.03
20260831024448 25 34 0.0 0.0 0.00 0.41 0.03
20260831023950 25 34 0.0 0.0 0.00 0.41 0.03
20260831022949 25 34 0.0 0.0 0.00 0.41 0.03
20260831022447 25 34 0.0 0.0 0.00 0.41 0.03
20260831021948 25 34 0.0 0.0 0.00 0.41 0.03
20260831020947 25 75 0.0 0.0 0.00 0.41 0.03
20260831020445 25 75 0.0 0.0 0.00 0.41 0.03
20260831015946 26 75 0.0 0.0 0.00 0.41 0.03
20260831015445 25 75 0.0 0.0 0.00 0.41 0.03
20260831014946 26 75 0.0 0.0 0.00 0.41 0.03
20260831014444 25 75 0.0 0.0 0.00 0.41 0.03
20260831013945 26 75 0.0 0.0 0.00 0.41 0.03
20260831013443 26 75 0.0 0.0 0.00 0.41 0.03
20260831012945 25 75 0.0 0.0 0.00 0.41 0.03
20260831012440 25 75 0.0 0.0 0.00 0.41 0.03
20260831011941 25 75 0.0 0.0 0.00 0.41 0.03
20260831011440 26 75 0.0 0.0 0.00 0.41 0.03
20260831010941 26 75 0.0 0.0 0.00 0.41 0.03
20260831010437 26 75 0.0 0.0 0.00 0.41 0.03
20260831005935 26 75 0.0 0.0 0.00 0.41 0.03
20260831005432 26 75 0.0 0.0 0.00 0.41 0.03
20260831004933 26 75 0.0 0.0 0.00 0.41 0.03
20260831004432 26 75 0.0 0.0 0.00 0.41 0.03
20260831003934 26 75 0.0 0.0 0.00 0.41 0.03
20260831002932 26 75 0.0 0.0 0.00 0.41 0.03
20260831001932 26 121 4.8 3.2 0.00 0.41 0.03
20260831001430 26 37 0.0 0.0 0.00 0.41 0.03
20260831000931 26 37 0.0 0.0 0.00 0.41 0.03
20260831000429 26 37 0.0 0.0 0.00 0.41 0.03
20260830235930 26 37 0.0 0.0 0.00 0.41 0.03
20260830235428 26 65 1.6 1.6 0.00 0.41 0.03
20260830234929 26 51 0.0 0.0 0.00 0.41 0.03
20260830234428 26 51 0.0 0.0 0.00 0.41 0.03
20260830233930 27 51 0.0 0.0 0.00 0.41 0.03
20260830232928 26 63 0.0 0.0 0.00 0.41 0.03